Regional Weather Roundup
Issued by NWS

Home | Current Version | Previous Version | Graphics & Text | Print | Product List | Glossary On
Versions: 1 2 3 4 5 6 7 8 9 10 11 12 13 14 15 16 17 18 19 20 21 22 23 24 25 26 27 28 29 30 31 32 33 34 35 36 37 38 39 40 41 42 43 44 45 46 47 48 49 50
000
ASUS43 KFSD 020410
RWRSD

WEATHER ROUNDUP FOR SOUTH DAKOTA
NATIONAL WEATHER SERVICE SIOUX FALLS SD
1100 PM CDT TUE SEP 01 2015

NOTE: "FAIR" INDICATES FEW OR NO CLOUDS BELOW 12,000 FEET WITH NO
SIGNIFICANT WEATHER AND/OR OBSTRUCTIONS TO VISIBILITY.


SDZ001>005-009-010-012>017-020500-
NORTHWEST AND NORTH CENTRAL SOUTH DAKOTA

CITY           SKY/WX    TMP DP  RH WIND       PRES   REMARKS
BUFFALO          N/A     72  54  53 SE9       29.80R
FAITH            N/A     79  54  41 CALM      29.83R
MOBRIDGE       CLEAR     73  65  75 SE9       29.79R
$$

SDZ012>016-024>037-041>051-057-063-072>074-020500-
SOUTHWEST AND SOUTH CENTRAL SOUTH DAKOTA

CITY           SKY/WX    TMP DP  RH WIND       PRES   REMARKS
RAPID CTY ARPT CLEAR     63  55  75 NW7       29.88R
PIERRE         CLEAR     73  67  81 SE8       29.79S
CUSTER         CLEAR     60  47  61 N5        30.05R
ELLSWORTH AFB  CLEAR     67  55  64 W7        29.88R
PHILIP         CLEAR     69  62  78 CALM      29.81R
PINE RIDGE     CLEAR     57  46  66 CALM      29.89R
WINNER         FAIR      74  66  76 SE12      29.82S
$$

SDZ004>011-016>023-039-040-020500-
NORTHEAST SOUTH DAKOTA

CITY           SKY/WX    TMP DP  RH WIND       PRES   REMARKS
ABERDEEN       CLEAR     67  63  87 SE7       29.83S
WATERTOWN      CLEAR     70  62  76 SE6       29.88R
BROOKINGS      CLEAR    N/A N/A N/A E10       29.90R
SISSETON         N/A     67  67 100 CALM      29.85S
$$

SDZ017-020-022-023-036>040-048>070-020500-
SOUTHEAST SOUTH DAKOTA

CITY           SKY/WX    TMP DP  RH WIND       PRES   REMARKS
SIOUX FALLS    PTCLDY    75  71  87 S7        29.87R
HURON          CLEAR     70  68  93 SE7       29.83S
CHAMBERLAIN    CLEAR     70  69  96 SE8       29.83R
MITCHELL       CLEAR     70  69  97 SE6       29.83F
YANKTON        CLEAR     77  70  78 S9        29.84S
$$

ABBREVIATIONS USED IN REMARKS
   TC - TEMPERATURE IN CELSIUS
  WCI - WIND CHILL INDEX
   HX - HEAT INDEX
  VSB - VISIBILITY




USA.gov is the U.S. government's official web portal to all federal, state and local government web resources and services.